RH
95 89 68 51 43 37 31 29 25 22 23 25 27 25 21 20 20 22 25 28 27 25 22 22 23 21 22 21 22 25 26 42 48 39 36 22 19 20 15 18 13 12 17 24 30 27 30 28 24 27 30 34 32 30 28 24 24 24 36 46 46 47 40 33 28 28 34 27 20 20 19 22 22 20 21 20 21 24 26 25 25 27 27 29 33 34 36 38
92 74 54 47 40 35 33 28 27 30 34 33 27 24 20 18 19 22 26 27 27 25 23 24 23 22 22 20 22 28 39 58 56 38 24 9 12 19 16 19 18 13 16 23 21 20 26 25 23 25 29 33 30 29 26 24 24 25 32 38 41 40 37 34 31 33 38 33 23 18 20 21 20 19 19 23 24 25 26 26 27 31 30 30 33 35 36 38
77 61 49 46 39 36 32 27 38 44 39 30 24 22 19 18 18 22 25 25 26 24 25 24 23 23 20 21 24 34 56 60 43 30 18 6 7 11 13 16 16 13 15 22 17 14 20 21 21 22 29 33 29 28 24 22 24 26 25 32 40 34 36 38 31 33 39 41 31 20 20 21 20 16 21 25 23 27 28 28 31 33 34 33 34 35 36 38
59 54 48 43 38 35 32 38 49 42 29 24 23 22 22 22 20 21 23 22 25 24 25 23 22 22 18 23 23 37 60 48 25 19 13 10 9 9 11 12 13 11 12 20 16 14 16 17 19 20 28 34 28 25 23 21 22 25 22 27 35 31 38 38 29 28 32 42 35 20 21 22 19 16 23 28 25 29 26 26 31 31 33 35 35 35 36 37
51 50 43 38 36 32 34 45 45 30 23 21 21 22 23 23 20 21 20 20 24 25 24 23 21 19 21 23 24 45 55 29 13 14 14 15 12 10 13 13 13 11 12 17 14 15 17 16 18 20 27 32 28 24 21 19 19 23 20 23 31 30 33 31 26 28 27 36 35 26 25 21 20 18 21 27 28 29 24 24 27 28 32 33 35 36 35 36
49 45 41 38 34 31 31 33 28 20 20 18 18 22 22 22 21 21 19 19 23 24 26 26 23 22 27 25 31 55 46 17 13 14 11 11 12 14 15 16 16 14 14 14 12 16 19 17 18 22 28 29 26 22 19 17 17 23 20 20 29 24 24 26 24 25 24 31 37 33 23 17 21 20 19 23 25 24 20 22 25 27 29 31 34 34 34 36
49 44 42 39 33 31 29 25 21 18 16 14 17 21 22 21 21 20 18 19 22 28 34 33 34 36 36 34 42 54 38 16 14 14 13 10 10 11 12 16 18 16 15 12 12 16 19 18 19 22 26 27 23 19 17 16 16 22 20 19 26 24 24 26 22 22 21 24 29 27 23 20 21 20 19 20 20 19 18 21 24 25 27 30 33 34 34 35
49 46 44 40 35 31 30 27 22 17 13 11 14 19 23 21 19 19 16 19 26 37 45 42 47 50 48 50 47 39 29 20 12 13 15 10 10 9 10 18 20 17 15 12 11 15 19 18 18 21 26 25 20 16 15 17 17 19 20 18 20 24 26 24 20 21 20 19 19 20 23 22 18 17 18 18 19 18 18 21 23 24 26 30 33 34 34 34
52 49 45 41 38 35 32 29 21 16 13 10 12 17 22 20 18 18 16 19 33 46 49 48 54 55 58 61 46 28 23 17 12 14 15 11 12 10 10 18 21 18 15 13 12 14 18 17 16 18 22 21 16 15 13 16 20 17 18 17 16 18 22 22 21 21 21 21 18 16 18 17 15 16 17 17 17 17 18 21 22 24 26 30 33 33 34 35
54 46 42 41 38 35 31 27 21 16 13 10 11 15 20 21 19 19 16 22 39 48 49 56 62 62 65 57 37 26 19 10 10 16 16 13 16 15 13 16 18 17 17 15 12 14 15 14 14 14 17 18 14 14 13 15 17 16 16 17 16 16 18 22 23 22 22 22 20 18 17 15 14 15 17 17 15 17 19 21 23 24 27 29 30 32 34 34
49 43 39 36 35 33 28 25 20 16 13 11 11 14 19 21 22 22 18 27 44 47 48 60 68 69 65 47 29 23 15 7 7 13 16 12 16 19 14 15 17 17 18 17 14 14 13 12 11 13 16 17 15 14 13 13 14 15 16 17 17 16 16 18 20 23 24 21 18 17 16 15 14 14 15 15 15 16 19 22 23 24 27 28 28 31 34 33
47 42 36 32 32 29 25 21 17 15 13 12 12 15 20 23 28 27 20 32 48 47 47 56 68 73 61 41 29 21 12 9 7 9 13 10 13 17 14 15 16 16 16 17 16 14 12 11 10 14 16 15 15 16 14 12 12 14 17 18 18 16 17 16 16 20 21 19 16 16 18 17 15 15 13 14 15 15 18 22 23 24 26 27 27 31 34 33
48 42 35 32 30 27 23 18 13 13 11 12 13 18 24 26 32 31 24 36 48 47 46 55 74 77 59 41 28 21 15 13 11 9 11 12 11 11 13 15 14 14 15 14 17 15 12 10 10 13 14 14 14 13 13 12 13 15 17 19 19 18 18 16 15 16 17 17 15 16 22 20 15 14 12 13 15 15 19 21 22 24 25 26 27 30 35 34
48 42 37 32 29 27 23 16 13 11 9 12 15 21 26 27 33 32 28 38 48 49 47 59 79 73 55 41 26 20 19 15 14 12 11 13 12 10 11 14 13 13 13 14 16 14 12 10 10 11 12 14 13 11 11 12 14 16 18 21 21 22 19 14 14 15 16 16 14 16 22 20 13 12 11 12 15 16 18 20 22 24 24 25 26 30 34 33
47 42 39 32 29 28 23 17 14 11 11 15 19 23 25 26 32 33 33 43 49 49 51 67 81 66 47 39 25 19 19 15 14 12 10 11 12 12 12 13 12 12 13 13 14 13 12 10 10 12 12 12 12 13 14 13 14 15 20 23 21 21 19 13 12 13 14 14 13 16 18 17 12 11 11 12 15 15 19 22 22 23 23 24 26 29 32 32
46 42 39 33 29 27 22 17 14 13 16 20 23 23 24 27 34 37 41 51 52 52 61 69 70 59 42 30 20 17 18 16 12 10 10 9 11 13 13 14 11 11 14 13 13 13 11 10 10 11 11 11 12 15 18 16 14 13 18 21 19 18 17 13 10 9 11 13 13 15 16 15 12 11 10 12 15 16 19 22 22 23 23 24 26 28 30 31
46 43 40 35 30 27 22 16 14 16 21 24 25 23 24 27 32 36 43 56 59 61 67 59 49 50 40 24 17 14 14 16 12 10 9 8 9 13 14 13 10 12 14 13 14 13 11 11 11 11 10 12 12 14 21 22 17 14 14 17 16 16 15 13 11 8 9 12 14 14 15 13 12 11 11 13 15 16 19 21 22 24 25 26 26 27 30 32
46 43 40 35 31 27 22 16 14 18 23 26 24 22 27 29 29 36 48 61 67 65 63 53 44 41 33 26 22 14 10 12 12 11 8 6 8 12 14 12 12 14 15 14 14 13 13 13 12 13 12 12 12 14 23 24 17 15 14 15 15 14 13 12 11 9 9 12 14 14 15 13 11 11 12 13 14 17 20 21 22 24 25 27 27 28 31 32
41 39 37 35 32 26 20 16 14 20 25 26 24 24 30 33 34 45 53 52 54 56 52 46 41 29 19 21 19 13 11 9 10 10 7 6 7 12 14 13 14 15 17 17 15 13 15 16 16 16 15 13 14 15 19 19 14 13 12 12 14 13 12 11 10 8 8 12 14 14 14 12 10 11 14 14 14 16 19 21 25 28 29 27 28 29 32 34
36 35 34 34 31 24 19 14 13 21 25 26 31 28 23 23 26 33 35 27 26 31 28 25 27 23 19 20 16 13 12 8 9 9 7 6 7 11 12 12 14 15 17 17 16 15 15 20 21 18 17 14 13 14 16 15 12 11 10 10 11 12 11 10 9 8 8 11 13 12 13 12 11 12 14 14 14 15 19 24 26 31 33 29 28 29 34 36
36 35 34 33 29 22 17 13 14 22 23 28 36 26 14 16 19 20 23 22 18 15 14 12 13 17 18 17 14 12 11 10 9 8 6 5 6 10 12 13 17 17 16 16 16 15 16 22 21 16 16 14 13 14 15 15 13 10 9 9 9 10 10 9 8 8 8 10 12 11 11 12 10 12 15 15 14 13 18 25 25 27 34 31 30 32 35 37
37 35 33 32 28 20 15 12 15 20 24 30 32 18 10 15 18 18 22 25 20 15 16 15 12 11 10 10 11 10 10 12 11 8 6 6 7 10 13 15 18 18 17 16 16 17 18 20 18 15 14 14 14 13 14 14 12 10 10 9 8 8 9 9 8 7 8 10 11 10 12 12 10 11 15 14 14 12 15 26 28 29 35 34 33 35 34 37
36 33 31 30 27 21 12 11 18 22 27 31 24 13 11 14 16 18 22 25 24 18 15 15 15 13 9 8 9 8 11 12 12 10 6 6 9 9 12 17 18 18 18 18 16 17 19 17 15 14 13 14 14 13 13 13 12 12 10 9 9 7 8 10 9 7 7 8 9 10 11 11 10 10 12 11 12 12 12 23 31 29 31 33 32 33 34 36
35 34 32 28 26 21 10 12 20 20 24 26 16 12 13 14 16 20 23 26 24 20 16 14 12 12 10 7 7 8 11 12 12 11 7 7 9 8 11 14 16 17 18 17 14 13 14 12 11 13 12 12 13 12 12 12 12 12 11 10 8 7 8 8 8 7 8 8 8 10 11 12 10 10 10 8 9 12 10 18 33 33 29 32 33 33 33 35
37 35 32 29 26 20 13 17 21 20 24 22 14 14 13 13 17 21 26 32 29 20 17 17 13 10 9 7 6 6 9 11 12 11 7 7 8 9 9 11 13 16 16 15 13 12 11 8 8 10 10 10 10 11 11 12 13 12 11 10 7 6 7 7 7 7 9 10 9 10 14 15 12 10 11 9 9 12 11 14 29 38 35 33 34 34 33 32
36 33 31 30 25 21 20 18 22 30 29 19 14 15 13 14 20 20 27 41 37 20 13 16 14 9 8 7 5 5 9 12 11 10 9 7 7 8 9 10 11 13 13 12 12 11 9 8 8 10 10 9 10 10 9 10 13 13 10 8 7 6 7 7 6 7 9 10 8 8 14 17 14 12 11 10 9 11 12 12 17 28 34 32 31 34 33 32
35 29 29 31 22 24 33 28 30 36 25 16 16 15 13 16 20 19 33 47 34 15 12 12 10 8 8 7 4 6 10 10 9 10 9 8 7 7 8 10 10 11 10 10 13 12 9 8 9 9 10 10 10 10 9 9 11 11 8 6 7 6 7 7 6 7 8 7 8 7 10 15 15 13 10 10 12 10 11 14 13 18 27 30 29 30 31 32
34 26 28 33 21 23 42 44 42 34 19 16 17 16 15 18 18 19 38 46 22 8 12 10 9 10 8 6 4 6 8 7 9 10 9 8 7 6 8 8 8 9 8 9 14 12 8 9 9 9 10 11 10 9 9 9 9 9 7 6 6 6 7 7 5 7 6 6 9 8 8 14 15 13 11 10 12 11 9 11 13 15 23 29 28 27 28 29
31 24 27 35 25 20 36 47 44 30 18 18 18 19 17 16 18 22 40 42 15 7 11 9 11 11 8 8 6 6 6 6 9 9 8 9 8 7 8 7 6 8 7 8 11 10 8 9 7 7 9 9 9 8 8 8 8 7 6 6 5 5 5 6 6 7 7 8 11 8 6 12 14 11 11 11 11 12 11 9 11 12 17 24 25 26 31 31
27 21 25 37 34 28 32 37 34 25 19 19 19 19 16 17 22 31 47 39 13 10 12 9 12 10 10 11 8 8 7 6 7 7 9 10 9 9 8 7 6 6 7 8 9 9 8 7 7 7 7 8 7 7 7 7 7 6 6 6 5 5 5 5 6 6 8 11 9 7 6 9 13 11 10 11 11 11 10 10 10 11 16 23 22 23 30 30
24 19 25 36 39 40 39 32 25 21 20 20 19 18 16 18 22 32 41 25 9 15 16 14 15 13 13 13 11 11 9 8 7 7 10 11 11 12 11 9 7 7 8 9 10 9 8 8 8 7 6 6 7 7 6 6 6 6 6 7 7 6 6 6 7 7 9 11 8 6 6 7 12 13 9 8 9 8 9 9 10 10 14 22 24 22 24 26
22 20 27 33 37 46 47 34 22 19 19 19 18 17 17 22 25 28 26 13 12 21 19 18 18 16 17 16 14 14 11 11 9 7 10 11 12 14 13 12 9 9 11 11 11 10 9 8 7 7 7 6 8 8 7 6 6 6 6 8 9 8 9 11 11 10 9 9 6 5 6 8 10 10 8 7 7 7 8 9 9 10 14 18 22 22 23 24
21 23 32 34 37 44 40 26 17 16 18 18 18 18 21 27 28 23 17 14 17 20 17 18 18 16 17 17 16 15 12 12 9 8 10 10 13 14 14 12 9 11 12 10 11 11 11 9 7 8 7 6 8 9 9 7 6 8 8 9 10 9 13 17 15 14 12 9 6 4 5 8 8 7 6 6 5 6 8 8 7 12 18 19 16 18 24 25
24 30 39 39 41 42 30 18 15 16 16 16 17 20 24 29 24 15 13 14 14 15 16 17 17 16 17 16 16 13 13 13 10 9 10 11 14 15 15 14 10 10 10 9 11 11 13 13 9 8 8 7 8 8 8 8 6 8 7 7 9 8 13 16 15 14 14 10 7 6 7 8 8 7 5 4 4 5 6 7 7 10 15 17 15 16 22 27
31 39 45 40 35 32 22 14 15 15 15 14 17 23 27 25 16 11 12 13 13 15 15 15 15 17 17 16 13 11 12 13 10 9 11 12 14 14 14 14 12 11 11 12 12 10 12 12 8 7 7 7 8 7 6 7 8 8 6 6 7 7 10 12 11 10 10 10 8 8 8 7 6 5 4 4 3 4 5 5 6 9 12 15 18 18 19 25
45 46 44 34 24 19 16 14 15 16 15 15 20 25 24 18 12 13 18 18 16 16 15 15 15 16 17 15 13 11 10 13 12 10 12 12 12 13 13 12 12 11 11 12 12 11 12 12 7 6 7 6 7 7 6 7 8 8 6 7 6 5 7 9 11 9 8 10 9 8 7 6 5 5 4 4 4 4 5 5 5 7 13 17 20 20 17 20
57 50 44 37 27 18 14 15 17 18 17 19 26 30 26 21 18 19 21 19 16 15 14 17 17 16 17 16 14 13 13 17 15 10 11 13 11 11 11 11 11 11 11 11 11 11 12 11 8 6 7 7 6 6 7 6 6 7 7 6 5 5 6 8 11 11 11 12 9 7 7 7 8 8 5 4 5 5 4 5 5 6 12 18 19 21 19 18
66 54 45 38 27 17 14 17 19 19 19 22 31 34 29 24 20 18 18 17 16 16 16 17 16 15 17 17 17 15 17 22 21 15 11 11 12 11 11 12 11 9 10 10 10 10 10 11 10 7 7 7 5 7 9 7 5 6 6 5 5 7 9 10 11 12 13 14 12 9 8 7 8 8 6 5 5 6 5 5 6 4 9 16 18 20 21 19
58 43 33 25 19 15 17 20 20 18 19 22 27 27 22 19 17 16 17 16 17 18 19 18 17 17 18 19 18 16 17 20 23 24 17 13 15 16 14 15 14 12 12 12 12 9 9 12 11 7 6 6 6 9 11 9 6 5 5 5 5 7 9 10 10 10 12 15 14 12 10 8 7 6 6 6 5 6 7 7 7 5 6 14 18 19 21 20
45 35 24 17 17 16 17 19 17 17 19 21 22 20 16 16 17 15 14 15 16 18 19 19 19 20 20 20 20 20 24 23 22 25 22 16 18 19 16 17 16 16 15 14 14 11 9 12 12 9 6 6 8 10 10 10 8 7 7 7 6 6 7 8 8 7 9 13 14 13 12 9 6 5 5 6 7 7 7 8 8 6 5 12 19 20 20 19
46 37 22 16 18 15 17 19 15 15 18 17 18 18 15 16 18 15 13 14 15 15 16 18 20 21 21 22 24 27 33 31 26 27 23 19 23 24 19 17 16 17 17 16 16 14 11 11 12 11 9 8 8 7 7 8 7 7 7 7 7 7 7 9 10 8 6 9 11 11 12 9 5 5 6 6 6 6 6 7 7 6 5 9 15 17 21 21
41 31 19 15 18 16 18 19 14 14 17 15 16 17 16 18 17 13 13 15 15 15 17 18 20 20 20 24 28 32 35 34 32 32 26 24 31 28 19 17 16 15 17 18 16 14 13 13 13 14 11 8 7 6 7 7 6 6 5 5 6 6 6 9 11 10 7 7 8 7 11 10 7 7 6 5 6 5 6 7 6 6 6 7 10 13 19 21
35 32 23 16 16 17 21 22 17 17 16 15 17 16 15 18 16 15 17 16 16 17 17 18 19 19 20 24 29 33 34 33 33 32 27 28 31 26 20 19 19 16 17 21 21 19 18 16 15 17 17 12 7 4 6 6 6 7 6 5 6 5 6 7 7 9 8 7 7 8 11 11 8 9 7 6 7 5 5 7 6 6 6 7 9 11 17 21
40 37 24 16 17 19 22 23 22 23 20 19 22 19 16 17 16 18 20 18 17 18 18 19 19 19 20 23 27 30 30 35 37 32 30 34 34 29 24 21 23 20 16 21 26 25 26 23 17 21 25 21 13 8 9 9 7 8 6 5 5 5 6 6 6 8 10 9 8 8 11 10 9 11 9 6 6 5 5 5 5 6 7 6 7 11 19 23
47 34 19 17 18 20 22 19 20 25 24 25 27 24 21 18 16 18 19 18 18 18 18 18 18 20 22 22 25 27 28 35 39 36 42 52 47 36 27 23 24 21 18 29 33 25 28 29 23 26 29 24 17 12 11 11 9 8 7 5 5 5 5 7 8 10 11 14 13 9 9 11 12 12 10 7 5 6 6 5 5 6 7 7 11 17 23 26
54 34 24 26 22 20 22 17 16 21 24 29 32 27 23 22 20 18 17 18 19 18 18 19 19 22 25 26 30 32 30 32 35 38 53 64 54 39 31 26 24 24 30 43 37 23 25 29 28 31 30 24 22 18 12 10 10 9 8 6 5 5 5 7 9 10 12 14 14 13 14 15 14 11 10 8 6 6 7 6 6 8 9 13 23 29 28 27
54 39 32 38 35 28 25 21 21 22 22 28 33 32 29 26 23 21 19 20 20 18 20 24 26 26 26 29 33 35 33 32 34 41 54 60 50 40 35 29 26 31 38 36 24 19 27 29 26 29 27 24 25 22 15 13 12 10 8 7 6 5 5 7 8 10 13 13 13 19 23 18 13 10 9 8 8 8 8 6 6 11 15 18 26 29 24 22
59 47 35 40 47 43 36 31 28 24 23 28 33 33 30 28 27 26 22 21 20 20 26 34 34 28 26 29 34 37 39 38 40 45 52 55 50 44 42 35 29 32 33 25 17 20 30 31 26 24 22 19 19 18 16 17 16 12 9 7 6 6 6 7 7 8 11 14 14 19 22 16 11 10 8 8 8 7 8 7 6 10 15 18 20 21 17 16
66 58 46 47 56 54 44 34 30 28 29 32 35 33 32 35 33 26 22 25 25 23 28 37 35 27 25 28 32 38 41 42 47 49 49 52 50 49 51 47 36 31 29 25 22 23 28 32 27 23 23 20 18 17 15 16 17 16 13 9 6 6 5 6 7 6 8 13 12 14 19 15 10 10 8 7 8 7 8 9 7 9 13 15 15 14 12 12
77 78 74 72 69 61 48 36 33 36 35 33 36 34 34 37 33 25 23 27 30 29 28 32 30 25 26 28 30 35 36 40 50 52 47 49 50 50 53 51 41 35 31 28 26 25 30 34 28 25 28 25 20 19 16 16 18 17 15 11 7 6 6 6 7 6 7 11 9 10 19 17 10 9 9 8 10 11 11 11 10 12 12 11 11 9 9 13
76 78 83 91 86 69 56 45 37 38 38 38 41 38 32 31 29 27 26 24 28 32 30 30 30 27 27 29 30 33 32 34 41 41 38 42 45 44 46 46 41 39 35 30 29 27 30 33 28 26 31 28 21 20 17 15 18 17 16 16 11 8 7 6 7 7 7 10 10 11 15 14 10 9 9 9 10 12 12 11 11 12 11 9 9 9 11 16
75 75 78 92 93 76 66 59 47 40 40 44 46 41 35 31 26 27 32 30 27 29 29 31 32 30 31 33 33 33 31 29 30 28 27 30 30 31 35 37 36 37 35 31 30 28 29 32 31 30 34 30 21 19 18 18 23 24 19 16 13 10 10 7 7 7 6 8 10 11 12 13 13 11 9 9 10 11 13 11 10 12 13 12 10 10 12 13
Wind_Speed
25 26 26 28 29 30 30 30 31 30 30 29 29 29 30 30 30 29 27 24 24 24 23 23 22 20 19 19 18 18 19 19 20 16 19 27 26 17 15 15 11 14 18 15 16 15 16 18 18 20 17 12 10 9 11 11 8 6 5 5 4 4 4 7 8 6 7 5 4 5 5 8 8 9 8 10 12 12 14 11 10 12 14 17 23 30 32 32
26 27 28 29 30 32 32 32 32 31 30 30 30 31 32 31 30 28 26 24 24 24 23 23 22 21 20 18 17 16 17 19 21 21 29 35 29 22 19 20 19 14 17 18 19 18 16 15 17 18 13 9 9 10 11 9 8 7 5 5 3 2 4 6 10 9 8 11 6 3 4 6 6 9 7 8 12 10 11 12 12 15 17 20 26 30 31 31
26 28 29 30 32 33 34 34 31 30 31 32 33 34 33 32 31 28 25 25 25 24 24 24 23 22 20 17 15 12 14 18 18 22 33 34 29 29 25 22 21 16 19 20 20 20 17 16 18 16 12 10 9 11 11 9 8 7 6 5 2 4 4 4 8 6 1 13 14 4 4 4 3 8 6 5 12 11 9 11 12 16 19 21 24 27 29 30
28 30 31 32 34 35 36 34 31 32 34 35 35 35 33 32 31 27 25 26 25 25 25 24 23 22 20 16 12 9 11 15 11 11 17 22 24 26 29 29 24 18 20 20 19 20 19 17 17 15 13 10 10 12 11 9 7 6 8 4 4 7 4 3 9 9 9 15 14 8 5 6 6 5 8 5 8 7 8 12 12 17 21 23 24 24 26 26
30 32 33 34 35 36 37 34 33 35 37 37 36 36 34 33 30 26 26 27 26 26 26 25 23 21 19 14 8 7 9 8 1 5 3 8 15 19 29 33 27 22 21 21 20 20 20 18 16 15 12 10 11 11 11 12 8 6 9 4 11 9 3 4 11 12 14 14 8 8 5 6 6 4 9 10 7 3 6 13 14 18 21 23 23 23 23 23
33 34 35 36 37 38 38 37 37 38 38 38 38 37 34 32 29 26 27 27 27 27 26 24 21 19 16 9 4 6 9 4 5 9 6 4 6 9 21 28 27 23 22 21 21 20 19 17 15 13 11 11 13 12 11 13 11 7 9 6 14 9 3 6 9 11 12 9 11 10 5 3 6 6 8 11 9 6 8 15 17 18 21 22 23 22 22 23
34 36 36 37 38 39 40 40 39 39 39 39 38 37 34 31 28 27 28 27 27 26 24 21 18 15 10 5 4 7 9 11 10 2 2 2 5 5 8 19 24 22 23 22 20 18 17 17 16 12 12 12 13 14 12 12 12 10 10 8 11 10 7 9 8 9 12 6 11 12 8 6 10 6 8 9 8 9 12 17 19 19 20 22 22 21 22 22
35 37 37 38 39 40 41 41 41 40 40 39 38 36 34 31 28 28 28 27 26 23 19 16 14 10 4 4 6 8 10 19 24 15 7 6 5 2 7 13 20 21 23 24 21 18 17 17 17 13 12 13 12 14 14 12 12 13 12 10 8 12 13 10 7 8 12 8 6 10 11 11 9 5 7 10 9 10 13 17 20 19 21 21 20 21 21 20
36 37 38 39 39 40 41 41 42 41 40 38 36 35 34 31 29 28 27 25 22 19 16 14 12 6 5 5 7 9 12 20 24 18 15 11 9 8 9 12 18 21 22 24 24 20 16 15 17 15 13 13 13 14 14 12 10 11 13 12 12 9 12 10 7 8 10 9 7 8 8 8 8 6 6 10 12 12 15 17 19 19 20 20 19 20 20 20
37 38 38 39 40 41 42 42 42 41 40 38 34 34 34 31 28 27 26 22 18 16 15 12 10 4 8 8 8 9 10 14 16 18 17 12 13 13 12 13 17 22 20 21 23 20 16 14 15 14 12 12 13 14 14 12 9 10 12 12 14 13 9 12 11 9 8 11 12 9 7 7 7 6 5 10 13 13 16 17 18 18 18 19 19 19 19 19
38 38 39 39 40 42 42 43 43 42 41 37 33 33 32 30 28 27 25 19 14 15 14 11 7 7 11 10 9 10 7 7 6 16 18 14 17 17 15 15 17 21 20 19 21 21 19 17 15 11 10 11 12 14 15 14 11 11 12 11 14 16 13 13 13 12 11 13 14 11 9 8 8 8 6 11 15 15 16 17 18 18 17 18 19 18 17 16
39 39 39 40 41 42 43 43 43 42 40 35 32 32 30 29 28 27 24 16 12 14 14 10 6 9 11 10 13 17 14 9 4 10 15 15 18 17 17 16 17 20 20 17 18 22 21 19 17 13 10 10 11 11 11 14 14 12 13 11 12 14 13 15 13 13 14 12 13 12 9 9 10 9 7 11 15 15 16 17 17 16 15 16 17 16 15 15
39 39 39 40 41 42 43 43 43 42 39 34 32 31 29 27 28 27 21 14 10 13 13 8 6 10 10 8 15 25 25 20 13 10 10 13 17 18 18 18 18 19 20 18 17 20 21 20 19 16 13 11 11 9 6 9 12 12 13 11 10 11 11 14 14 15 16 11 12 12 7 7 10 10 9 11 16 15 16 16 15 15 14 14 15 14 15 16
39 39 40 40 41 43 44 43 43 41 36 34 32 30 28 27 28 25 17 12 10 11 11 5 8 10 9 10 16 24 25 22 21 19 13 12 16 18 20 20 19 20 20 20 19 18 19 20 19 15 13 13 12 12 10 8 9 11 12 10 9 9 9 13 16 16 16 11 13 13 7 7 9 11 12 11 16 15 14 15 14 13 13 13 13 14 15 15
39 39 40 40 41 43 43 43 43 39 34 33 32 30 29 27 26 21 14 11 9 9 7 3 10 9 7 12 18 18 18 19 21 23 20 16 16 16 19 21 21 21 20 19 19 17 18 19 17 12 11 14 14 13 12 9 8 9 10 10 10 9 9 13 16 18 16 12 15 15 7 7 9 11 14 13 16 16 13 14 12 12 13 13 13 13 13 13
39 40 40 41 41 43 43 42 41 36 32 33 31 31 30 27 22 18 13 9 8 6 3 5 12 13 7 8 10 9 14 19 20 22 22 20 18 16 18 21 21 21 20 19 19 17 17 16 13 12 12 13 14 11 9 9 9 9 10 10 10 11 9 11 14 18 18 13 15 16 8 7 6 7 14 16 16 16 14 13 13 13 13 13 12 12 13 13
39 40 40 41 42 43 42 41 39 32 31 32 31 33 29 20 16 16 11 8 8 7 8 9 10 12 10 10 8 7 14 19 20 20 22 22 20 17 17 17 17 19 19 18 18 16 14 13 10 10 11 11 11 10 10 10 10 9 10 10 11 13 11 10 12 15 20 15 14 16 11 10 6 7 12 16 17 15 14 13 13 12 10 11 11 12 13 13
40 41 41 42 42 43 42 41 36 29 31 31 30 33 25 13 12 12 7 6 7 8 11 12 10 7 8 10 12 12 11 16 21 20 21 23 21 20 17 14 14 16 16 14 16 15 11 11 10 10 11 11 12 12 12 12 10 10 11 10 11 13 13 12 12 10 19 17 14 15 13 13 10 11 12 14 15 13 15 14 12 11 10 10 11 12 12 13
41 41 42 43 44 44 42 40 33 27 30 29 29 29 17 8 8 6 6 6 5 6 7 6 10 7 7 9 15 15 10 9 19 18 20 23 21 20 18 15 14 16 15 11 14 15 11 9 10 11 12 14 16 16 15 15 13 14 14 12 11 12 12 13 13 10 15 16 14 15 13 13 13 12 13 13 12 11 14 16 10 10 10 11 11 11 12 13
40 41 42 43 43 44 43 40 31 25 28 30 32 26 11 9 7 2 3 8 9 13 16 12 12 15 17 17 13 11 7 6 13 16 20 23 20 19 16 14 14 14 14 13 13 14 11 10 12 14 15 17 19 20 19 18 17 17 14 13 14 13 12 13 15 13 14 13 14 16 14 15 14 14 16 12 12 12 13 18 13 10 11 12 13 12 12 13
41 41 41 42 43 42 41 39 29 23 24 29 29 16 8 13 10 7 11 15 16 16 21 23 20 20 22 22 19 11 6 7 12 15 20 24 21 17 14 14 15 13 15 16 13 12 13 13 16 19 19 19 20 21 20 19 20 20 15 13 14 13 12 14 16 14 15 12 12 16 16 16 15 14 18 17 15 15 15 20 18 14 14 13 15 14 13 12
40 40 41 41 41 40 40 36 26 21 21 23 19 9 10 14 11 12 14 14 19 18 20 24 23 23 24 26 29 23 14 11 15 15 19 23 20 16 14 15 16 13 15 17 12 11 13 15 19 20 19 19 19 19 21 21 20 17 14 12 11 11 11 14 16 14 14 11 10 15 15 14 16 14 18 21 18 15 15 21 21 17 16 16 16 16 15 15
40 40 41 40 41 40 38 33 23 19 18 16 13 12 14 16 15 17 13 10 18 20 17 20 22 22 22 23 26 24 16 14 14 16 20 21 18 16 15 16 17 15 16 17 15 13 12 14 19 20 18 20 21 20 21 20 16 14 13 12 11 12 11 10 14 15 13 10 10 13 13 12 16 16 17 19 18 17 17 21 24 19 19 19 18 17 16 17
41 41 41 40 41 38 36 30 19 15 18 14 12 16 18 19 18 18 14 9 14 17 19 23 20 18 21 20 20 21 16 14 14 15 21 21 17 16 16 17 18 16 16 20 22 18 14 13 17 20 20 22 21 20 20 16 13 15 16 14 12 13 13 11 12 14 13 12 13 13 10 8 11 13 14 14 15 18 18 20 24 19 19 20 19 18 17 17
42 42 41 40 39 38 34 23 13 18 22 14 14 19 21 20 18 17 13 8 9 13 18 19 14 16 23 21 18 17 15 15 16 14 19 23 19 15 14 13 13 16 19 23 22 18 17 15 16 21 22 22 21 19 20 16 11 14 18 19 18 15 15 15 13 12 11 12 14 14 10 7 10 14 14 13 13 16 15 18 22 20 19 20 19 19 18 18
43 41 41 38 36 37 28 13 14 23 20 12 18 22 22 19 19 18 10 7 9 9 10 10 9 11 18 17 15 15 14 15 16 16 17 24 22 15 13 10 9 15 19 19 15 11 13 17 17 20 21 23 21 17 19 19 12 11 15 20 22 19 17 18 16 12 10 9 14 16 12 7 10 14 16 14 13 14 14 16 20 20 20 21 18 18 18 18
42 40 40 36 33 32 19 10 18 21 12 13 21 23 22 19 20 17 8 6 7 2 6 6 5 6 11 14 16 15 10 8 14 19 19 23 23 16 15 14 11 13 14 11 11 9 14 20 20 20 20 20 18 15 18 20 14 10 13 18 21 21 19 18 16 12 10 10 13 17 15 9 8 11 15 16 16 16 15 16 19 20 21 22 20 19 19 19
42 39 38 35 30 22 12 14 18 15 11 18 23 22 22 21 19 13 6 4 3 4 5 3 3 3 5 12 20 17 8 6 13 18 20 24 25 17 17 19 16 16 16 13 12 12 16 21 22 21 19 15 15 16 18 20 15 11 13 15 16 20 20 18 14 11 11 10 11 13 14 10 8 10 13 17 19 17 15 15 16 19 23 23 21 20 20 19
41 39 35 33 27 16 9 14 14 13 18 21 21 22 23 22 16 7 4 6 4 3 2 1 2 4 3 8 18 18 12 8 8 14 20 23 25 18 14 18 19 18 20 19 15 12 14 18 21 20 16 13 15 17 19 19 15 13 14 14 13 16 18 16 13 10 10 11 11 13 14 9 8 9 11 14 16 17 16 16 16 17 21 21 21 21 21 18
41 37 31 29 24 16 13 12 11 15 21 21 21 24 23 16 9 5 6 6 4 6 4 1 3 1 5 8 13 15 15 14 9 11 19 19 23 21 13 15 18 16 17 20 18 16 15 16 17 17 15 13 15 17 19 19 17 14 14 14 11 11 11 12 11 10 9 11 12 16 17 13 9 8 9 10 12 15 15 15 15 17 21 21 20 21 21 18
40 33 25 23 20 15 14 11 13 20 20 21 23 22 17 8 5 7 5 4 5 9 8 5 11 11 6 7 8 14 17 16 14 12 16 16 19 19 14 13 14 13 13 15 17 18 19 16 14 14 16 15 15 16 17 19 18 15 12 11 9 8 8 8 9 10 11 11 13 17 19 16 11 8 9 10 11 14 13 13 15 19 22 19 19 20 20 18
38 30 19 17 16 14 12 11 19 23 20 22 21 14 9 5 5 8 7 8 6 8 12 13 17 18 16 14 10 12 14 14 16 15 14 15 15 15 16 14 11 12 13 13 14 16 17 18 15 15 18 19 16 13 13 16 17 14 11 11 10 8 8 8 8 9 11 10 11 16 18 16 11 10 13 14 12 14 15 16 13 16 21 17 18 19 17 17
36 26 15 14 15 13 11 14 21 21 20 21 15 7 5 7 6 8 11 10 5 11 14 16 20 20 18 14 11 11 11 12 16 17 15 17 16 16 20 20 17 15 12 12 13 12 13 16 20 18 16 19 18 13 11 13 14 14 12 11 10 8 8 9 9 8 10 10 12 17 16 13 11 11 16 19 15 13 17 20 16 16 21 19 18 18 17 17
34 22 15 18 18 15 12 16 19 19 20 16 9 7 8 8 7 10 13 9 9 14 16 17 21 22 17 12 10 10 10 9 14 16 15 15 15 14 17 22 24 18 11 11 12 12 13 13 18 20 13 16 21 16 13 13 13 14 13 11 11 9 8 9 8 9 9 8 12 16 13 10 10 9 14 19 18 15 14 16 17 16 20 20 18 19 19 18
31 19 17 19 15 11 12 17 17 17 16 10 6 7 8 7 7 9 9 9 11 13 17 19 17 17 15 11 11 12 11 9 13 15 12 13 14 13 15 18 23 20 12 11 9 11 16 13 16 21 16 17 22 18 16 15 13 12 12 12 12 11 9 7 8 10 10 7 9 11 9 8 9 9 12 16 18 20 17 14 15 15 18 20 18 19 18 18
27 18 18 15 7 8 15 17 16 15 12 7 5 6 6 7 7 6 10 15 14 14 18 16 11 11 11 9 9 11 9 10 13 14 11 14 15 16 16 14 20 23 16 12 9 9 13 12 14 21 21 21 21 20 19 15 10 10 12 14 12 12 11 7 8 10 10 9 8 8 9 9 9 11 13 15 15 19 20 19 17 13 19 21 17 18 18 18
26 18 17 14 10 12 16 15 14 13 9 5 5 6 7 10 12 13 14 16 17 16 15 11 7 9 10 8 9 11 15 15 13 13 11 14 14 17 20 15 18 24 22 16 10 9 11 10 14 22 23 22 20 21 22 19 12 10 12 13 11 11 12 7 6 7 9 9 7 9 13 11 10 9 11 15 16 15 18 20 19 15 17 22 19 18 18 18
26 19 15 13 11 14 15 14 13 11 6 4 5 5 6 10 13 14 14 15 17 15 12 9 8 10 12 10 11 16 18 14 11 11 10 12 8 7 11 12 15 21 26 24 14 10 11 9 13 21 23 20 18 18 18 19 20 14 11 13 11 10 11 8 7 7 8 8 6 9 12 10 10 9 10 16 17 14 15 17 20 19 15 20 20 19 19 18
23 15 7 4 10 14 14 15 14 8 5 5 5 3 4 8 10 12 13 14 13 12 11 11 10 11 13 13 13 15 15 13 13 14 10 8 3 6 10 6 6 6 11 18 15 12 12 9 9 18 23 20 15 14 14 15 20 18 12 13 11 9 9 9 8 7 7 7 6 8 9 7 7 9 11 14 14 15 15 12 16 19 14 17 19 19 18 16
16 9 3 9 14 16 18 18 12 5 4 5 5 5 6 7 8 9 10 11 10 8 9 12 13 13 12 15 15 13 14 14 14 13 11 8 4 9 16 14 11 14 15 13 12 12 12 10 9 12 21 20 13 13 16 16 16 15 13 12 12 9 8 9 9 8 7 6 5 6 7 7 7 8 13 13 13 15 14 11 11 15 16 16 18 19 17 14
13 7 4 12 17 18 19 15 6 2 5 5 5 7 8 7 8 8 7 9 9 7 9 12 13 12 12 13 13 12 12 13 13 12 10 10 11 9 13 16 15 14 14 11 7 8 9 9 9 9 13 17 16 17 20 20 18 16 13 11 12 11 10 9 9 10 9 7 6 6 5 3 2 4 9 12 12 14 15 12 10 13 17 17 17 18 18 15
10 7 9 11 15 18 16 8 3 3 5 5 6 8 8 7 10 9 6 8 8 6 8 10 11 12 11 10 11 12 12 11 12 14 10 12 16 13 14 18 18 15 12 9 6 8 9 7 9 10 10 13 19 21 21 22 21 18 16 14 12 12 11 10 8 8 9 9 7 7 5 1 5 4 4 5 7 12 13 12 11 12 14 14 18 19 19 17
5 10 16 11 16 17 12 5 5 5 5 8 9 10 8 7 9 8 6 7 7 6 7 8 10 12 10 9 11 12 12 11 11 14 12 12 14 17 20 23 21 16 10 9 9 8 6 7 10 8 9 10 16 20 19 21 20 17 16 16 14 13 13 11 8 7 8 10 9 7 5 2 5 4 3 5 5 9 11 10 12 12 11 11 15 18 18 18
7 11 13 12 19 14 8 5 7 6 7 9 11 11 9 7 9 8 7 8 7 6 7 7 9 11 10 10 11 11 11 10 10 13 14 11 13 20 24 24 22 17 9 8 8 8 5 7 10 7 7 9 13 16 15 17 17 13 14 18 18 18 18 14 10 8 7 10 11 8 6 4 5 5 5 6 4 5 8 9 11 11 11 11 10 12 15 18
9 9 7 11 16 10 5 6 7 6 9 11 11 11 9 7 8 8 9 9 7 7 8 7 10 11 10 11 11 11 11 9 10 12 12 11 13 18 19 21 23 18 11 12 12 9 6 7 7 7 9 11 12 13 12 14 13 11 15 21 23 23 21 15 9 8 7 9 11 9 6 6 8 5 6 8 8 6 7 11 9 7 11 10 7 8 12 16
7 7 7 9 10 6 5 8 8 7 9 10 10 10 10 9 8 8 9 8 5 8 9 8 9 10 10 11 11 10 11 11 11 9 10 10 11 12 18 24 24 21 20 18 16 10 5 7 9 9 11 8 4 5 6 10 13 16 19 22 24 25 23 16 10 8 7 7 8 8 5 9 10 10 10 10 9 7 8 12 10 6 7 5 3 8 9 11
6 7 8 8 7 6 6 8 9 9 9 10 8 9 11 12 9 7 6 6 8 10 10 8 9 10 9 11 11 10 11 12 11 9 10 11 11 14 21 23 20 23 27 19 13 8 5 8 11 13 16 12 5 1 3 5 8 17 23 23 23 25 25 19 12 11 9 6 8 8 7 10 10 10 9 8 8 5 5 10 11 7 8 9 8 10 12 11
6 6 8 10 8 7 8 10 11 12 13 11 8 9 12 12 11 9 6 6 9 9 6 7 10 11 11 12 11 11 11 12 10 9 9 10 13 15 18 19 18 22 26 17 10 7 5 8 10 14 17 15 14 12 7 7 8 8 17 24 24 25 27 24 16 14 12 7 7 7 6 7 9 10 9 8 8 7 6 9 9 7 10 11 8 8 12 12
7 6 7 10 8 9 12 14 14 14 14 11 9 9 10 10 11 10 8 8 9 8 5 7 10 12 12 12 11 10 11 10 9 9 8 10 12 11 12 14 15 19 23 16 10 9 5 6 10 13 14 14 16 17 13 9 10 11 11 19 24 24 25 24 20 18 15 10 9 10 8 5 7 10 10 10 10 8 8 10 9 8 9 9 6 7 10 12
6 5 5 7 8 9 11 13 12 11 11 10 9 8 7 10 12 10 8 9 11 10 8 10 12 13 13 14 12 11 11 10 8 9 9 10 10 9 7 7 11 17 21 15 11 12 9 7 11 12 11 11 12 15 15 10 9 11 11 12 18 22 24 24 21 19 16 13 12 12 10 7 6 9 11 9 8 9 10 9 10 9 9 8 8 10 12 12
9 10 8 6 7 8 9 10 10 9 8 7 8 8 8 10 12 11 10 10 12 12 9 11 14 13 12 14 13 12 12 10 8 11 10 9 9 8 6 7 12 16 16 13 12 12 10 9 10 9 8 8 8 13 14 6 5 11 11 12 14 17 19 19 19 18 15 14 15 13 10 8 7 9 12 11 7 9 9 5 5 5 5 8 9 10 12 14
11 11 8 5 5 7 7 9 10 9 7 5 7 11 12 12 12 12 10 7 9 11 9 10 14 13 11 13 13 12 13 13 12 12 11 9 10 9 9 11 14 15 13 12 12 10 10 9 7 7 8 8 9 10 8 3 5 10 9 11 12 10 9 14 19 20 17 14 12 10 7 7 7 7 10 12 9 9 6 3 2 2 3 2 1 3 5 7
Wind_Direction
357 356 358 359 360 359 359 357 355 353 350 346 344 343 342 341 338 335 331 327 324 321 318 317 314 313 310 311 311 310 315 308 296 276 242 251 251 245 259 252 252 230 205 197 206 202 194 205 209 208 213 215 219 228 232 234 228 236 241 239 248 254 284 301 305 3 342 306 107 125 129 119 130 127 129 136 127 127 139 136 125 132 132 133 137 140 144 145
355 356 358 358 358 358 357 355 353 350 347 344 343 343 341 339 337 334 331 328 325 321 318 315 313 311 310 311 310 313 319 301 284 270 254 259 255 245 249 240 246 234 194 199 212 206 200 202 204 206 211 216 218 219 229 225 214 228 241 246 239 242 285 299 305 358 6 304 320 101 125 104 125 129 145 149 122 128 135 121 113 122 128 128 136 144 146 148
355 357 358 357 357 357 356 354 350 346 345 344 343 342 339 338 336 333 330 329 325 321 318 312 311 309 310 310 310 319 315 297 279 265 262 263 255 242 237 231 233 222 197 203 213 210 209 207 201 204 212 219 220 217 224 217 206 217 231 248 201 201 258 298 296 317 310 276 291 297 116 96 179 140 140 161 128 137 139 123 123 127 133 135 140 147 149 153
357 357 357 357 357 357 355 351 346 345 346 344 343 341 338 336 335 332 329 328 324 321 315 310 309 306 309 307 307 322 305 289 272 265 266 254 247 238 228 226 222 211 203 209 219 215 214 213 204 205 211 220 225 222 223 219 208 207 227 232 170 193 217 244 255 259 239 241 263 281 147 154 235 146 135 163 124 135 144 133 138 135 137 141 144 149 153 157
357 356 357 357 357 356 354 349 346 346 346 344 343 341 338 336 333 331 328 327 323 320 313 309 306 303 306 301 297 312 292 282 283 55 14 223 228 229 221 221 217 209 206 214 226 221 216 216 208 207 214 224 225 226 225 220 215 221 248 193 154 190 195 222 242 245 237 212 205 256 210 159 229 180 130 130 123 204 167 135 138 139 141 145 147 152 158 159
357 356 357 356 356 355 353 350 348 348 346 343 342 340 339 335 332 330 327 326 323 318 313 307 303 302 302 290 284 281 264 271 68 75 68 116 139 192 212 216 215 209 208 217 226 221 216 215 210 209 212 227 227 228 224 218 221 226 252 199 165 200 222 206 234 253 247 174 155 219 225 127 207 185 128 131 148 192 162 133 137 142 144 147 149 156 161 161
357 357 356 355 354 353 351 349 348 347 345 343 341 340 339 335 332 328 326 326 323 317 313 308 302 302 301 280 256 249 243 258 274 267 91 67 92 116 185 210 211 206 209 216 223 218 213 213 213 211 212 224 229 232 228 220 229 230 250 236 180 173 181 212 218 245 259 194 166 193 174 187 212 178 147 156 150 153 143 133 141 146 146 148 152 159 163 163
356 356 355 354 353 352 350 348 347 346 344 343 340 339 338 334 330 326 325 325 322 316 314 309 303 303 281 247 246 241 235 246 258 252 235 247 238 171 139 185 201 202 210 214 218 216 211 215 214 212 215 223 228 232 232 225 230 232 243 254 218 173 174 221 228 223 258 256 201 189 176 194 198 161 161 160 143 143 139 135 141 146 148 151 156 161 163 166
355 354 353 353 352 350 348 347 346 345 344 342 340 338 335 332 329 325 325 325 320 315 315 308 303 293 207 228 248 252 248 247 250 234 223 226 206 195 166 176 193 198 210 214 217 216 211 217 215 216 223 227 232 234 233 228 226 230 235 244 249 218 177 199 222 219 251 264 245 219 202 204 181 169 174 159 155 145 134 137 141 147 153 152 158 164 162 167
354 353 352 351 351 349 347 346 345 344 343 341 338 336 333 331 329 325 324 323 317 311 313 306 298 249 202 224 237 250 260 261 247 203 202 207 180 183 191 189 189 194 208 214 218 217 213 218 216 219 232 235 238 238 236 232 227 229 236 239 247 252 215 193 192 202 243 252 247 237 214 217 195 187 186 159 157 146 138 141 142 149 156 155 161 164 164 171
353 352 351 350 349 348 347 345 344 343 342 340 337 333 331 331 329 325 322 320 312 308 313 305 282 214 211 228 233 240 245 269 240 180 190 198 178 182 199 199 189 194 207 214 219 218 215 220 220 220 228 236 243 245 243 240 240 235 237 242 240 247 245 223 198 187 217 233 235 239 226 221 204 198 199 160 154 152 147 147 148 153 156 159 164 163 166 174
353 352 350 350 349 347 346 344 343 342 340 338 335 332 330 330 328 324 319 314 307 305 311 304 257 205 220 240 235 236 245 269 261 188 201 203 193 196 203 203 196 199 208 215 221 219 217 221 224 225 222 227 241 246 246 240 241 236 234 245 239 234 236 235 224 205 212 218 217 226 229 223 212 205 202 163 156 157 153 154 155 154 157 163 164 162 166 173
352 351 350 349 347 347 345 343 342 340 339 337 334 332 329 329 327 322 315 307 303 303 307 297 223 207 230 249 238 239 250 265 265 246 230 212 212 212 207 209 207 205 211 220 224 219 219 222 226 232 232 231 235 242 265 253 244 237 230 243 247 239 232 224 225 223 223 220 212 221 222 223 219 206 202 171 158 160 159 158 158 157 159 163 163 162 168 172
351 351 350 348 347 346 344 343 342 340 339 336 333 331 329 329 325 319 311 300 297 300 300 268 198 206 231 252 258 251 248 256 257 248 237 224 221 212 205 210 213 211 213 223 228 222 220 223 229 236 237 240 244 246 257 254 243 238 227 232 241 243 243 222 212 216 222 212 207 225 226 224 225 197 194 175 157 164 165 158 159 162 160 161 165 164 170 175
351 351 350 348 346 345 344 343 342 340 339 335 333 331 328 328 323 314 309 300 292 293 291 219 201 217 253 259 265 263 242 242 244 232 225 225 224 213 202 206 212 212 213 222 227 226 219 219 226 233 233 237 247 251 247 238 230 229 225 224 225 232 249 236 212 204 214 203 197 222 226 217 230 194 183 173 160 166 163 155 160 172 168 161 164 163 171 177
350 350 350 348 345 344 343 343 342 340 338 334 332 331 329 328 317 301 302 296 277 280 253 195 205 218 266 277 264 247 219 223 226 220 220 222 223 216 201 202 209 209 211 219 225 228 220 217 222 229 233 231 234 243 245 241 225 216 223 225 220 222 231 245 228 199 202 203 194 213 229 225 225 171 174 168 162 171 161 158 171 178 173 161 163 168 175 178
351 351 349 347 345 344 343 342 342 339 337 334 332 333 333 330 303 284 296 291 270 256 228 238 230 219 249 281 282 240 209 213 216 214 214 214 221 220 202 199 205 204 208 214 220 228 221 215 218 220 229 229 223 225 231 234 222 208 216 224 227 227 220 234 244 199 187 201 204 205 220 234 202 149 184 171 163 176 158 160 177 173 173 166 168 173 172 176
351 350 348 347 345 342 342 342 340 338 336 334 334 334 335 333 302 279 275 260 246 232 230 250 255 235 242 249 250 243 221 205 206 212 208 204 215 219 204 198 201 197 202 209 212 220 219 213 217 216 218 224 220 215 219 222 220 213 210 217 224 232 228 221 238 203 178 192 210 206 212 230 208 169 188 171 164 180 157 162 180 163 180 183 169 175 172 176
351 349 348 347 344 341 341 341 339 335 334 333 337 339 339 338 310 250 234 250 238 241 252 234 210 232 305 275 241 241 261 214 193 204 204 194 204 216 206 198 203 199 199 204 199 204 213 209 213 220 213 214 216 215 220 222 226 225 215 217 219 225 234 223 227 211 182 189 207 214 212 222 218 175 168 166 173 194 164 162 172 150 180 194 171 175 174 176
351 349 347 346 343 340 339 340 337 332 331 328 329 332 343 358 339 244 299 301 278 273 285 280 235 248 285 294 271 232 245 230 192 201 201 189 194 210 205 195 201 202 202 203 194 194 209 214 211 217 215 212 215 219 225 225 232 240 228 220 220 221 232 228 224 208 189 197 206 213 216 216 214 171 164 183 192 204 173 159 173 163 176 192 175 172 174 179
350 347 347 345 342 338 337 339 335 329 330 323 318 324 8 7 347 330 325 302 284 271 271 274 263 259 263 272 279 265 256 241 207 203 197 188 193 202 195 192 200 202 202 203 197 193 208 221 218 215 217 218 217 219 225 226 230 243 246 234 225 220 226 233 232 207 190 206 207 205 215 223 220 176 170 193 198 206 186 161 175 180 172 180 175 174 177 179
349 347 346 343 342 338 335 337 333 325 327 319 318 349 14 356 336 318 314 298 289 276 263 264 261 261 257 257 266 271 281 254 213 204 193 185 194 199 183 189 204 201 196 202 201 194 209 225 220 214 216 221 222 218 221 228 229 235 245 247 239 222 217 230 238 219 195 208 209 202 210 219 224 207 188 193 193 203 193 163 168 180 174 178 179 177 179 179
349 348 345 343 342 337 334 336 329 322 321 314 333 8 357 341 332 319 308 290 288 279 262 251 245 246 246 247 252 252 256 244 218 203 190 186 196 199 189 191 204 203 194 202 206 199 209 221 217 214 214 218 224 221 216 223 230 231 235 240 245 234 221 222 227 220 206 210 217 215 221 215 213 216 209 205 195 196 198 169 164 178 180 180 183 179 178 179
348 348 345 343 341 338 337 333 325 330 324 314 347 3 348 335 333 329 314 281 278 277 257 243 236 235 232 230 231 231 233 233 229 206 187 190 197 195 201 197 199 208 201 204 212 214 218 213 208 213 215 215 220 222 217 217 222 227 231 231 237 238 237 240 225 214 206 200 211 221 229 227 221 223 222 221 203 191 196 175 164 174 177 174 179 180 180 181
348 347 346 343 339 338 336 331 337 341 325 326 1 353 340 336 333 331 318 284 275 266 247 235 227 230 226 218 214 215 222 225 228 216 190 193 198 191 203 204 200 211 206 205 214 222 224 214 201 207 214 216 217 220 218 216 217 223 228 231 236 238 237 245 242 228 216 199 207 221 225 223 227 236 234 225 206 190 190 180 169 168 168 170 177 180 182 182
346 346 346 342 338 340 340 341 346 330 317 342 1 342 333 335 333 327 311 281 281 260 219 196 186 203 208 205 199 197 217 227 223 226 204 193 200 198 200 206 205 213 210 206 215 226 226 221 210 204 209 214 217 221 218 216 221 222 220 224 233 240 236 238 240 237 234 212 210 218 223 227 220 228 234 228 220 205 192 185 178 167 163 169 174 175 179 182
345 344 345 341 338 342 340 329 329 324 325 351 344 333 330 330 326 320 304 268 272 219 142 151 160 172 187 189 181 181 209 211 201 225 218 190 194 204 206 206 203 211 212 207 215 220 217 221 218 207 206 211 215 219 215 214 222 225 218 216 223 234 238 240 240 239 242 234 225 215 205 215 228 224 227 227 228 221 202 189 181 167 160 165 172 174 178 182
344 343 344 340 338 341 316 292 311 324 344 341 331 328 327 323 317 307 289 283 286 113 106 92 114 170 206 187 181 190 213 175 179 213 218 196 191 200 212 212 209 207 207 213 219 211 207 217 221 212 207 211 214 216 213 213 221 226 224 221 217 224 233 241 245 246 248 246 245 227 204 205 226 219 220 221 225 228 217 209 198 175 164 165 171 176 178 182
343 342 344 338 337 346 312 273 279 312 333 332 328 325 319 313 307 288 254 275 296 42 49 81 131 181 202 184 189 203 220 216 192 191 203 203 195 201 219 216 217 213 209 221 229 218 210 212 219 220 214 212 213 213 212 214 219 218 225 233 224 218 222 230 240 247 251 248 244 238 228 227 229 214 213 213 216 222 216 218 221 190 168 167 172 174 176 180
342 342 344 337 334 345 330 283 277 320 332 327 323 321 313 304 292 261 242 252 293 0 352 135 67 110 182 187 196 209 221 239 252 188 191 201 194 201 220 216 223 226 214 222 230 233 229 210 210 224 224 212 211 213 211 213 217 211 217 232 230 221 216 217 227 236 245 245 237 236 236 238 240 227 224 216 211 220 213 208 215 191 168 166 171 174 175 177
341 341 341 334 327 326 320 309 323 332 329 322 320 316 304 290 266 251 255 294 324 354 359 10 9 356 292 245 214 212 215 231 254 220 192 195 193 198 211 210 218 228 221 220 222 230 236 222 204 214 225 216 207 213 211 208 213 211 208 218 221 216 214 212 213 217 230 236 228 231 234 235 236 229 236 231 211 220 230 227 214 185 168 163 167 175 176 175
340 342 338 327 318 303 288 302 325 324 321 320 317 311 298 282 252 237 260 298 313 2 359 348 350 341 316 307 288 243 222 214 234 234 204 195 195 196 206 208 200 208 219 217 210 216 228 232 218 205 214 217 208 206 208 203 204 207 203 204 210 204 197 209 210 209 226 234 225 225 229 233 237 233 239 243 220 206 219 239 226 169 158 168 175 176 173 173
339 339 329 318 312 291 278 305 321 319 320 319 310 299 289 275 264 258 269 283 335 6 349 340 338 326 310 304 291 271 248 215 216 226 212 199 202 200 206 214 208 206 216 213 208 209 214 227 227 213 202 209 213 203 200 200 193 198 202 197 206 203 189 202 212 215 227 230 226 225 226 232 238 233 233 239 236 214 208 223 221 171 163 180 185 175 167 170
336 336 319 308 292 270 284 317 325 320 317 315 305 290 275 263 272 274 273 290 347 354 346 342 332 317 304 286 274 277 267 231 212 219 214 200 204 206 204 213 216 215 218 214 211 211 212 214 219 218 198 193 210 213 202 196 188 196 205 204 211 209 197 202 207 216 227 226 219 221 225 229 230 226 225 229 234 235 226 217 215 196 176 176 179 176 171 170
336 336 312 302 283 271 310 327 326 322 317 310 300 291 274 263 268 266 289 334 350 351 345 334 317 305 296 278 269 265 258 243 216 212 216 210 210 211 206 210 216 217 215 215 212 211 218 219 208 214 210 192 200 211 207 198 192 195 200 208 214 208 204 214 216 217 224 230 217 212 220 226 234 241 230 224 220 223 232 232 224 203 172 168 173 176 178 172
334 329 312 307 301 320 335 335 327 320 315 305 299 295 275 280 304 325 349 353 349 345 338 329 311 290 279 267 267 263 274 285 243 215 210 217 219 219 215 208 210 216 218 215 216 210 218 223 203 204 211 205 197 199 207 209 196 185 198 211 209 204 212 225 226 218 218 229 222 211 219 216 228 243 228 223 222 213 214 223 232 207 165 167 173 174 183 175
325 317 309 297 296 328 338 335 325 314 309 311 306 304 298 306 332 351 353 347 340 333 330 330 319 302 293 290 303 318 340 329 273 234 208 209 220 222 221 216 206 213 221 226 232 227 223 226 205 200 206 207 195 192 208 219 211 190 195 204 200 205 218 230 238 225 217 228 222 214 223 212 206 225 218 215 221 220 211 206 221 222 175 167 172 171 180 176
309 297 291 278 296 337 342 327 315 303 300 316 294 283 298 308 322 336 338 335 334 330 324 320 314 317 317 312 320 331 336 331 304 281 233 205 212 224 229 231 214 209 217 225 234 235 234 234 210 202 202 198 187 189 206 217 220 220 200 190 197 205 205 208 229 230 219 229 226 218 229 222 204 204 209 211 208 216 225 204 205 222 191 164 170 171 176 178
301 292 292 322 340 347 338 313 300 289 287 311 310 302 307 307 318 333 332 329 334 332 321 317 319 318 316 317 324 324 318 317 322 312 276 231 224 38 25 344 280 266 245 238 239 233 235 248 221 199 194 189 182 190 204 206 214 227 217 193 200 211 201 200 216 230 225 225 224 221 228 234 225 201 193 204 196 198 224 217 202 211 191 159 167 171 177 182
309 298 353 27 3 347 329 301 281 279 300 313 324 322 314 315 326 328 323 325 329 324 317 318 318 313 314 320 318 319 322 315 312 308 301 308 354 48 31 6 340 342 332 294 261 237 230 242 243 204 188 189 190 194 201 199 199 214 218 202 196 200 204 204 209 220 230 233 226 223 227 230 232 207 188 197 196 187 204 224 212 204 189 169 169 171 175 186
310 290 337 13 2 345 325 297 275 322 310 311 324 315 321 330 313 299 311 326 318 313 318 314 308 305 311 316 316 326 328 314 312 307 299 329 354 17 17 359 344 340 328 305 269 239 228 229 243 230 198 196 199 195 198 202 201 202 210 210 199 194 199 205 207 208 216 234 238 235 244 241 227 194 181 190 191 176 186 208 212 206 197 179 171 172 173 187
302 298 313 350 2 345 323 300 334 341 297 325 337 317 323 322 299 298 325 323 308 312 314 302 299 301 306 313 319 327 318 305 313 303 299 345 345 336 355 353 341 333 327 322 298 261 249 237 237 240 233 213 198 192 197 205 208 206 207 214 208 196 199 208 207 197 204 220 231 241 248 334 40 61 132 154 163 161 177 197 195 202 210 188 175 178 174 181
326 310 301 342 16 349 318 309 341 326 312 337 333 315 315 313 304 313 325 309 306 311 302 297 301 301 311 323 318 315 310 304 303 296 311 350 336 322 341 348 340 331 332 347 341 320 298 254 233 242 271 246 202 190 195 205 211 210 206 210 214 203 198 209 212 198 203 208 210 229 230 158 71 72 96 76 111 149 165 191 190 188 211 208 183 179 173 174
325 297 294 359 14 345 312 329 339 325 323 329 324 318 320 318 309 313 319 315 315 308 298 303 306 303 312 315 304 300 304 303 302 308 327 344 327 323 334 341 338 328 331 357 343 335 328 257 232 234 263 242 201 188 190 200 210 218 206 203 213 212 199 202 215 207 207 206 199 212 219 160 98 85 102 100 121 163 160 184 202 184 188 213 198 173 164 162
313 293 298 356 358 337 312 331 330 320 321 324 321 318 321 316 309 318 323 316 308 304 303 303 307 311 311 303 300 302 300 296 300 319 344 347 329 326 326 329 328 321 333 343 318 303 305 279 259 238 229 219 200 193 195 196 200 219 216 201 205 214 207 199 206 210 207 197 195 212 213 148 126 135 158 155 170 202 171 169 200 188 172 199 204 159 155 157
312 310 324 346 343 325 305 319 327 322 319 323 319 316 321 316 313 322 314 306 317 316 310 308 308 310 306 304 309 308 302 299 301 326 356 346 327 318 313 317 319 324 339 330 299 290 296 280 275 261 252 248 199 162 194 210 200 208 219 208 199 208 213 206 201 207 204 183 192 215 184 143 150 165 175 167 163 181 175 163 179 185 153 147 96 96 118 143
313 316 332 343 331 317 319 326 325 319 318 322 313 309 314 311 311 319 309 318 339 326 319 324 314 306 311 318 315 308 308 308 310 338 352 336 328 320 317 320 320 332 342 327 292 301 305 275 274 267 265 268 262 42 358 293 233 209 214 213 200 201 210 213 206 196 187 184 198 193 157 154 156 149 147 141 135 150 157 150 157 150 111 93 78 89 102 111
326 317 334 345 330 314 321 319 313 312 314 313 302 298 308 310 310 316 321 330 330 325 334 329 309 307 316 320 316 311 315 314 317 343 350 334 331 326 327 332 327 334 343 331 312 339 313 279 286 273 265 263 257 261 283 313 305 254 223 217 205 198 205 211 211 199 186 191 201 174 160 165 144 139 155 154 154 167 147 132 139 125 104 105 114 127 125 121
327 312 333 343 327 304 306 306 306 309 310 310 304 301 306 304 303 314 329 326 316 319 325 303 302 312 316 314 313 306 310 317 321 335 340 331 329 328 332 331 322 332 340 332 329 350 332 288 300 292 279 272 263 261 261 269 296 303 269 230 210 198 201 206 212 210 195 196 203 181 179 193 146 148 168 161 153 149 115 114 126 113 97 102 129 157 150 138
331 315 325 333 315 298 298 302 306 307 306 307 300 292 288 290 301 319 324 313 311 315 314 302 305 316 316 312 309 301 311 327 321 315 321 322 323 325 327 319 311 323 332 332 337 344 338 314 312 313 295 273 267 262 252 246 266 285 291 260 221 201 199 201 207 214 202 192 203 193 180 187 163 140 147 151 133 107 102 122 133 125 122 138 166 176 159 141
314 311 316 320 307 296 295 306 310 301 301 312 309 306 305 301 309 316 309 306 309 308 312 310 308 312 310 303 302 305 316 323 303 294 301 300 300 304 301 298 305 314 321 326 332 331 327 321 317 312 284 256 259 261 247 234 273 274 281 282 248 215 203 198 198 212 211 188 192 200 187 181 174 140 142 159 138 101 105 119 102 94 126 159 179 174 151 145
313 315 318 312 294 290 296 309 308 299 304 314 301 301 302 300 305 306 300 302 305 301 308 309 302 302 301 300 308 318 317 311 300 294 292 282 276 274 270 275 286 294 302 312 318 318 320 326 325 313 293 259 245 261 270 280 271 258 254 259 253 245 237 211 193 201 214 202 192 198 184 173 192 181 163 163 141 112 116 125 91 52 51 61 2 50 91 126